Theta_e
270 271 273 273 274 273 273 273 274 274 273 273 273 273 273 273 273 273 273 274 274 274 274 274 275 275 275 275 275 275 275 275 275 275 276 276 275 275 275 275 275 275 275 275 275 275 275 275 275 275 275 275 275 275 275 276 275 275 275 275 275 276 276 276 276 276 277 277 277
270 271 273 274 274 273 273 273 273 274 273 273 273 273 273 273 273 273 274 274 274 274 274 275 275 275 275 275 275 275 275 275 275 275 275 275 275 275 275 275 276 276 275 275 275 275 275 275 275 275 275 275 275 275 275 275 275 275 275 275 275 276 276 276 276 277 277 278 278
270 271 272 273 273 273 273 273 273 273 273 273 274 274 274 274 274 274 274 274 274 275 275 275 275 275 275 275 275 275 275 275 275 275 275 275 275 276 276 276 276 276 276 276 276 275 275 275 275 275 275 275 275 275 275 275 276 276 275 275 276 276 276 277 277 278 278 278 278
270 270 271 272 272 272 272 273 273 273 273 273 274 274 274 274 274 274 274 274 275 275 275 275 275 275 276 275 275 275 275 276 276 275 275 275 275 276 276 276 276 276 276 276 276 276 275 275 275 275 275 275 275 275 275 275 276 276 276 276 276 276 276 277 277 278 278 278 277
270 270 271 273 272 273 273 273 273 273 273 273 274 274 274 274 274 274 274 274 274 274 275 275 275 275 276 275 275 275 275 275 276 276 276 275 276 276 276 276 276 276 276 276 276 276 276 276 275 275 275 275 275 275 275 275 275 276 276 276 276 276 277 277 277 277 277 277 277
270 271 272 273 273 273 273 273 273 273 273 273 273 273 273 273 274 274 274 274 274 274 275 276 276 276 275 275 274 274 275 275 276 276 275 275 276 276 276 276 276 276 276 276 276 276 276 276 276 275 275 275 275 275 276 276 275 275 275 276 276 276 276 276 276 277 277 277 277
271 272 272 273 273 273 273 273 273 273 273 273 273 273 273 273 273 273 273 273 274 274 275 276 275 275 274 274 274 274 274 275 275 275 276 276 276 276 276 276 276 276 276 276 276 276 276 276 276 276 276 276 276 276 276 276 276 275 275 275 276 276 276 276 276 276 276 276 276
271 272 272 273 273 273 273 273 273 273 273 273 273 273 272 272 273 273 273 273 274 274 275 275 274 274 274 274 274 274 274 275 275 275 276 276 276 276 276 276 276 276 276 276 276 276 276 276 276 276 276 276 276 276 275 276 275 275 275 275 275 276 276 276 276 276 276 276 276
271 272 273 273 273 273 273 273 273 273 273 274 273 273 272 273 273 273 273 273 274 275 274 274 274 274 274 274 274 274 274 275 275 275 276 276 276 276 276 276 276 276 276 276 276 276 276 276 276 276 276 276 275 275 275 275 275 275 275 275 275 275 276 276 276 276 276 276 276
272 272 272 273 273 273 273 273 273 274 274 274 273 272 273 274 274 273 273 274 274 274 274 274 274 274 274 274 274 274 275 275 275 275 276 276 277 277 277 277 277 277 277 277 277 276 276 276 276 276 276 276 275 275 275 275 275 275 275 275 275 275 275 276 276 276 276 276 276
272 272 273 273 273 273 273 273 274 274 274 273 272 272 272 273 273 273 273 274 274 273 273 274 274 274 274 274 274 274 275 275 275 276 276 276 277 277 277 278 278 278 278 278 277 277 276 276 276 275 275 275 275 275 275 275 275 275 275 275 275 275 275 276 276 276 276 276 276
272 273 273 273 273 273 273 274 274 274 273 272 272 272 272 272 272 273 274 274 273 273 273 274 274 274 274 274 274 275 275 275 276 276 276 276 277 277 278 279 279 279 279 279 278 277 276 276 275 275 275 275 275 276 276 275 275 275 275 275 275 275 275 275 276 276 276 277 276
273 273 273 272 273 273 274 273 273 273 272 272 272 272 272 272 273 273 274 273 273 273 274 274 274 274 274 274 274 275 275 275 276 276 276 277 277 278 278 279 280 280 279 279 278 278 277 276 276 275 275 275 276 276 276 276 276 275 275 275 275 275 275 276 276 276 276 277 276
273 273 273 272 273 273 273 273 273 272 272 272 272 272 272 272 273 274 274 273 273 273 273 274 274 275 275 274 275 275 275 275 276 276 276 277 277 278 279 280 280 280 279 279 279 278 277 276 276 276 276 275 276 276 276 276 276 276 275 275 275 275 275 276 276 276 276 277 277
273 273 273 273 273 273 273 272 272 272 272 272 272 272 272 273 273 274 274 273 273 273 273 274 274 274 275 275 275 275 275 275 275 276 276 276 277 278 279 280 280 280 279 279 279 279 278 277 277 276 276 276 276 276 276 276 276 276 276 276 276 276 276 276 277 277 277 277 277
273 273 273 273 273 272 272 272 272 272 272 272 272 272 272 272 273 273 274 273 273 273 273 273 274 274 274 275 275 275 275 275 275 275 276 276 277 278 279 279 280 280 279 279 279 278 278 278 278 277 277 277 277 277 277 277 276 276 276 276 276 276 277 277 278 278 278 278 279
273 273 273 272 272 272 272 272 272 272 272 272 272 272 272 272 273 273 274 274 273 273 273 273 273 274 274 275 275 275 275 274 275 275 275 276 276 277 278 279 281 280 279 278 278 278 278 278 278 278 278 277 277 277 277 277 277 277 277 277 278 278 278 279 279 279 279 279 279
273 273 273 272 271 271 271 272 272 272 272 272 272 272 272 272 272 273 273 274 273 273 273 273 273 273 274 274 274 275 275 274 274 275 275 276 276 277 278 279 281 281 280 278 278 278 277 277 278 278 278 278 277 278 278 278 278 278 278 278 278 278 278 278 278 278 278 278 279
273 273 272 271 271 271 272 272 272 272 272 272 272 272 272 272 272 272 272 273 273 273 273 273 273 273 274 274 274 274 275 274 274 274 275 276 276 277 278 278 280 281 281 279 278 277 277 277 277 277 277 277 277 277 277 277 277 277 277 277 277 276 276 277 277 277 277 278 278
272 272 272 271 271 271 271 272 272 271 271 272 271 271 271 271 272 272 272 272 273 273 273 273 273 273 273 274 274 274 274 275 274 274 275 275 276 277 277 278 279 281 281 279 278 277 277 277 276 276 276 276 276 276 276 276 276 276 276 276 276 276 276 276 276 276 277 277 277
272 272 272 272 271 271 271 272 272 271 271 271 271 271 271 271 271 272 272 272 273 273 273 272 273 273 273 273 273 273 274 274 274 274 274 275 276 277 277 278 278 280 281 281 278 277 277 276 276 276 276 275 275 275 275 275 275 275 275 275 276 276 276 276 276 276 276 276 277
272 272 272 272 271 272 272 272 272 271 271 271 271 271 271 271 271 272 272 272 273 273 272 272 273 273 273 273 273 273 274 274 274 274 274 275 275 276 277 278 278 279 280 281 279 277 277 276 275 275 275 275 274 274 274 275 274 274 274 275 275 275 276 276 276 276 276 276 276
271 271 272 272 272 272 273 272 271 271 271 271 271 271 271 271 271 272 272 272 273 273 272 273 273 273 273 273 273 273 273 273 273 274 274 274 275 276 277 277 277 278 279 280 279 278 277 276 275 274 274 274 273 274 274 274 274 274 274 274 274 274 275 275 275 275 275 276 276
270 271 272 272 272 272 271 271 271 271 271 271 271 271 271 271 271 272 272 272 272 272 272 273 273 273 273 273 273 273 273 273 273 273 273 274 275 276 276 277 277 277 278 280 281 281 280 277 275 274 273 273 273 273 273 273 273 273 273 273 274 274 274 274 274 274 275 275 276
271 271 272 272 272 271 271 271 271 271 270 271 271 271 271 271 271 271 272 272 272 272 272 272 273 273 274 273 273 272 273 273 273 273 273 274 275 276 276 276 277 277 278 281 284 284 283 282 279 276 274 273 273 273 273 273 273 273 273 273 273 273 273 273 273 274 274 274 275
271 272 272 272 272 271 271 271 271 270 270 271 271 271 271 271 271 271 271 271 272 272 272 273 273 274 275 274 273 272 272 273 273 273 273 274 275 276 276 276 277 277 279 283 284 285 284 284 282 279 276 273 273 272 272 272 272 272 272 272 272 272 272 272 272 273 274 274 274
271 272 272 272 272 271 271 271 271 271 271 271 271 271 271 271 271 271 271 271 271 272 272 273 273 274 275 273 272 272 272 272 272 273 273 274 274 275 276 277 277 279 281 284 285 285 284 284 283 281 278 274 273 272 272 272 272 272 272 272 272 272 271 271 272 273 273 273 275
271 272 272 272 271 271 271 271 271 271 271 271 271 271 271 271 271 271 271 271 272 272 273 273 273 274 274 273 272 272 271 272 272 272 273 273 274 275 275 276 276 279 283 286 285 285 285 284 284 282 280 276 273 272 272 272 272 272 271 271 271 271 271 271 272 272 272 273 275
271 271 271 271 271 271 271 271 271 271 271 271 271 271 271 271 271 271 271 271 271 272 273 273 273 273 273 272 272 272 271 271 272 272 272 272 273 274 275 276 276 279 283 287 285 285 285 284 284 283 281 279 274 272 272 272 271 271 271 271 271 271 271 271 271 271 272 272 274
271 271 271 271 271 271 271 271 270 271 271 271 271 271 271 271 271 271 271 271 271 272 273 273 273 272 272 272 272 272 272 272 272 272 272 272 272 273 274 276 276 278 282 287 286 285 285 284 284 283 282 280 276 272 271 271 271 271 271 271 271 270 271 271 271 271 271 272 273
271 270 270 270 270 270 271 270 270 270 271 271 270 270 270 270 270 270 271 271 272 273 274 273 272 271 271 272 272 271 271 271 272 272 272 272 272 273 273 274 275 277 282 288 287 286 285 285 284 283 282 281 276 272 270 270 270 270 270 270 270 270 270 271 271 271 271 271 272
270 270 270 270 270 270 270 271 270 270 270 270 270 270 270 270 270 270 271 272 272 273 272 272 271 271 271 271 271 271 271 271 272 272 272 272 272 272 273 274 274 277 281 286 287 286 285 284 284 283 282 281 276 272 268 269 269 269 270 269 269 269 270 270 271 271 271 271 271
269 269 270 270 270 270 271 270 270 270 270 270 270 270 270 270 270 270 271 272 273 272 271 271 270 270 270 271 271 271 271 272 272 272 272 272 272 272 273 274 274 277 281 285 287 286 285 284 284 283 282 281 276 271 269 269 269 270 270 270 269 269 269 270 270 270 271 271 272
269 269 269 270 270 270 271 270 270 270 270 270 270 270 270 270 270 270 271 273 273 272 271 271 270 270 270 270 270 271 271 273 272 271 271 271 271 272 272 273 274 277 282 284 286 286 286 284 283 283 281 280 275 271 269 269 270 270 270 270 270 270 269 269 270 270 271 271 272
268 269 269 270 270 270 270 270 270 270 270 270 270 270 270 270 270 270 271 274 274 272 271 271 270 270 271 271 270 271 271 271 271 271 271 271 271 272 272 273 273 277 281 284 285 286 286 285 283 282 281 278 273 271 270 269 270 270 269 270 270 270 269 269 269 270 270 271 272
268 269 269 270 270 270 270 270 270 269 269 269 269 270 270 270 270 270 271 274 273 272 271 271 271 271 271 271 270 271 271 270 270 270 271 272 271 271 271 272 273 276 280 283 284 285 286 286 283 282 279 276 272 271 271 271 270 270 269 269 270 270 270 269 269 270 270 271 272
268 269 269 269 270 270 270 270 269 269 269 269 269 269 269 269 269 270 271 273 271 271 270 271 270 270 270 270 270 270 270 270 270 270 271 272 271 271 272 273 273 275 278 281 283 285 286 286 284 281 278 273 271 271 271 271 270 270 269 269 269 270 270 270 270 270 270 271 273
268 268 269 269 270 270 270 269 269 269 268 269 269 269 269 269 269 270 271 273 270 270 270 270 270 270 270 270 271 271 270 270 270 271 271 271 271 272 272 273 272 273 276 280 283 284 285 286 285 282 277 272 270 270 271 271 270 270 269 269 269 270 270 270 271 271 270 271 276
268 269 269 269 269 270 269 269 268 268 268 268 268 269 269 269 269 271 272 272 270 269 269 269 269 270 270 272 272 271 270 270 271 271 271 271 271 273 274 273 272 272 275 279 282 283 284 286 286 283 278 273 270 269 270 270 269 269 269 269 269 269 270 270 270 271 271 271 277
269 269 269 269 269 269 269 268 268 268 268 268 268 268 269 269 270 271 272 271 270 269 269 269 269 270 271 274 272 271 270 270 270 271 271 272 273 275 276 273 271 271 274 278 281 283 284 285 286 284 280 272 269 269 269 269 269 269 268 269 269 269 270 270 270 271 271 271 274
269 269 269 270 269 269 269 268 268 268 268 268 268 269 270 271 270 270 270 270 270 270 270 270 270 270 271 273 272 270 270 270 271 271 271 272 273 274 274 272 270 271 272 276 280 282 284 285 286 286 282 274 269 268 269 269 268 268 268 268 269 269 269 270 270 271 271 272 273
Wind_Speed
7 7 8 8 8 7 7 7 8 8 8 8 8 8 8 8 8 8 8 9 9 9 9 10 10 11 13 16 17 17 17 18 18 19 20 20 19 18 18 17 15 15 14 14 14 13 11 10 9 8 7 8 8 8 8 7 8 8 8 8 8 9 10 11 11 11 11 12 10
7 7 8 9 9 8 7 7 8 8 8 8 8 8 8 8 8 9 9 9 9 9 10 10 11 13 15 17 17 17 17 18 20 20 20 20 19 19 18 16 16 15 15 15 14 12 10 10 9 8 7 7 7 8 8 8 8 8 9 10 9 8 8 9 9 10 10 10 8
7 7 7 8 9 8 8 7 8 9 9 8 8 8 8 8 8 8 9 9 10 11 11 10 12 14 16 17 17 17 17 19 20 20 19 18 18 18 18 17 17 16 16 15 13 12 10 10 9 8 7 7 7 8 8 8 8 8 8 9 8 7 7 7 8 8 7 6 7
7 7 7 9 10 10 9 8 9 10 10 8 8 8 8 8 8 9 9 10 11 11 11 12 12 14 15 16 18 19 19 20 21 20 19 18 19 19 19 18 17 16 15 14 14 13 12 11 9 8 7 8 9 8 8 7 7 7 7 7 7 7 7 7 7 6 6 6 7
7 7 7 9 10 10 10 9 10 10 9 8 8 8 8 8 8 9 10 11 11 11 12 14 14 14 15 17 19 20 21 21 21 20 19 19 19 19 19 19 18 17 16 14 14 13 12 11 8 7 7 8 7 7 7 7 7 7 7 6 6 6 6 6 6 6 6 7 7
7 8 8 9 10 10 10 10 10 9 8 7 8 8 9 8 9 10 11 11 12 13 15 16 15 16 16 18 19 20 20 20 19 19 19 20 20 20 20 20 19 18 16 14 14 13 12 11 8 7 7 7 7 7 7 7 7 7 6 6 6 6 6 7 7 7 7 8 9
8 8 9 10 11 11 11 11 9 8 7 7 9 10 10 10 11 12 13 13 13 13 14 14 15 16 17 18 19 19 20 19 20 20 21 20 21 21 21 21 20 19 17 15 14 12 11 9 7 7 7 7 6 6 7 6 6 6 6 7 6 6 6 7 6 7 8 10 11
7 8 9 11 11 12 12 11 10 9 8 8 9 10 11 12 13 13 13 13 13 13 13 13 15 16 17 18 19 19 20 21 21 21 21 21 22 22 22 21 20 19 18 16 14 12 10 8 6 6 6 5 5 6 6 7 7 7 7 8 7 7 6 6 6 7 8 11 12
7 8 9 11 11 12 11 11 10 10 10 10 10 11 12 13 13 13 13 12 13 13 14 13 15 17 18 19 19 19 20 20 21 22 22 22 23 23 22 21 20 18 17 14 13 11 10 7 6 5 5 5 5 5 6 6 7 8 8 8 8 8 7 7 8 8 9 10 11
9 9 10 10 11 11 11 10 10 11 11 11 11 11 12 14 13 12 12 11 13 14 14 14 16 17 18 18 19 19 19 19 20 21 22 23 23 24 23 21 20 18 15 12 10 9 8 6 6 6 5 5 5 6 6 7 8 8 8 7 8 9 9 9 9 9 10 10 11
10 10 11 11 11 11 11 10 10 11 11 10 11 11 12 12 12 12 12 12 13 14 15 15 16 16 17 17 17 18 19 19 20 21 22 23 24 24 24 22 21 18 14 10 7 5 5 5 5 5 5 5 5 6 6 7 7 8 8 8 9 10 10 10 10 9 9 9 11
10 11 11 11 11 10 10 10 10 10 10 10 10 11 11 11 12 12 13 13 14 14 15 15 15 16 16 15 16 18 19 20 21 21 21 22 23 24 24 23 22 20 18 13 8 4 2 2 3 4 5 6 5 5 5 6 7 8 8 9 9 9 10 10 10 9 8 8 10
10 11 11 10 11 11 10 10 9 9 9 10 10 10 10 11 12 13 13 13 14 13 13 14 15 15 15 15 16 17 18 19 21 21 21 22 22 23 23 21 21 21 20 17 12 8 4 2 2 3 4 5 5 5 5 6 7 7 8 9 9 9 10 10 10 9 9 9 10
11 11 11 10 11 10 10 9 8 8 9 10 10 10 10 11 12 12 12 12 13 13 13 14 14 14 14 16 16 17 18 19 20 21 22 23 22 22 22 19 19 20 20 18 16 13 10 6 4 3 3 4 5 5 5 6 6 7 8 8 9 9 10 10 10 10 9 9 10
11 11 11 11 11 10 9 9 8 8 9 10 10 10 10 10 11 12 12 12 13 13 13 13 13 14 15 16 17 18 18 19 20 21 22 23 24 23 21 18 17 18 19 19 18 17 15 11 8 6 4 4 4 5 5 6 6 6 7 7 8 9 9 9 9 9 8 8 8
11 11 11 10 10 10 9 8 8 8 9 9 10 10 10 10 10 11 12 13 12 12 12 14 13 14 14 16 17 17 17 18 19 20 21 22 24 23 22 19 15 16 18 19 18 18 17 15 12 10 8 7 6 5 5 5 6 6 6 7 7 7 7 8 8 7 7 7 7
10 11 11 10 10 10 9 9 8 8 9 10 10 10 10 10 10 11 12 13 12 13 14 15 14 13 14 15 16 16 16 16 18 19 20 21 22 23 22 19 15 15 16 18 17 17 17 16 15 13 12 11 9 8 7 7 6 6 6 6 6 6 6 8 8 8 8 9 10
10 10 10 10 10 10 10 10 9 9 10 10 10 10 10 10 11 11 12 13 13 14 14 15 14 14 14 15 15 15 15 15 17 17 18 19 20 21 21 20 16 14 14 16 16 16 16 16 16 15 14 13 12 11 10 10 9 9 9 9 9 9 9 9 10 10 10 11 12
10 10 10 10 10 10 10 10 10 10 10 10 10 10 11 11 11 11 12 13 13 14 14 14 14 14 14 15 15 15 14 14 16 17 18 18 19 19 20 20 17 14 12 14 14 15 15 15 15 15 14 13 13 12 12 12 11 11 11 10 11 11 11 11 11 11 11 12 12
9 10 10 10 10 9 9 10 10 10 10 10 10 11 11 12 12 12 12 13 14 14 14 14 14 14 14 14 15 15 14 13 15 16 17 18 18 18 19 19 17 13 11 11 12 13 14 14 14 14 14 14 14 13 13 13 12 13 12 11 12 12 13 13 13 13 13 13 13
9 9 9 9 9 9 9 9 9 9 9 10 10 11 11 12 12 12 13 13 14 14 14 14 14 14 14 14 15 15 14 13 14 15 16 17 17 18 18 17 16 13 10 9 10 11 12 12 13 13 13 13 14 14 14 13 14 14 14 13 13 14 15 15 15 15 15 14 14
9 9 9 9 9 9 9 9 9 9 9 10 10 11 11 11 12 12 13 13 13 13 13 13 13 13 13 13 13 14 14 13 14 14 15 15 16 16 17 16 16 13 10 8 9 10 10 11 11 11 11 11 12 13 13 13 14 14 14 15 15 15 15 15 15 15 15 15 14
8 8 8 8 8 9 9 9 9 9 9 10 10 10 11 11 12 12 12 13 13 13 13 12 12 12 12 12 12 13 14 14 14 14 15 15 15 16 16 15 15 14 11 8 8 9 9 9 10 10 10 10 11 11 12 12 12 13 13 14 14 15 15 15 15 15 15 15 14
8 8 8 7 8 8 9 9 9 9 10 10 10 10 10 11 11 12 12 13 13 13 13 11 12 12 12 12 12 12 13 14 14 15 15 15 15 15 15 14 14 12 10 8 12 13 12 9 8 9 9 9 9 9 10 10 11 11 12 13 13 14 14 14 14 15 15 16 15
8 8 8 8 8 8 9 9 9 9 10 10 10 10 10 10 10 11 12 12 13 13 13 12 12 12 12 12 12 13 13 14 14 14 15 15 16 15 14 12 12 10 8 10 19 22 21 16 12 9 8 8 9 9 9 9 10 10 10 11 12 12 13 13 13 14 14 15 14
8 8 8 8 9 9 9 9 9 9 9 10 10 10 10 9 10 10 11 12 12 12 12 12 12 12 13 12 13 13 13 13 13 13 14 14 16 15 14 12 11 9 8 13 21 24 24 24 20 15 10 7 8 8 8 8 9 9 10 10 11 11 11 12 13 13 13 13 13
8 8 9 9 9 9 9 9 9 9 9 10 10 10 10 9 9 9 10 11 11 11 11 11 11 12 12 11 12 13 14 13 13 13 14 14 15 16 15 13 12 10 9 16 21 24 24 25 24 21 15 9 8 8 8 8 9 9 9 9 10 10 10 10 12 13 13 13 13
8 8 9 9 9 9 9 9 9 9 10 10 10 10 9 9 9 9 10 10 10 10 10 10 10 10 10 10 11 12 13 13 13 13 14 14 15 15 15 13 12 13 13 17 21 23 23 24 24 23 20 13 9 7 7 8 8 8 8 8 9 10 10 10 10 11 13 14 13
8 9 9 10 10 9 9 9 9 9 9 9 9 10 10 9 9 10 10 10 10 9 9 8 8 8 9 10 11 12 12 12 12 12 13 14 15 15 15 14 13 15 17 19 20 22 23 23 23 23 22 18 10 7 6 7 7 7 8 7 8 9 10 9 10 10 11 12 13
8 9 9 10 10 10 9 9 9 9 9 9 9 9 10 10 10 10 10 10 9 8 8 8 8 9 10 11 11 11 11 11 11 12 13 14 15 16 16 15 14 15 17 21 20 20 21 22 23 23 22 20 13 8 6 6 6 7 7 7 8 9 10 10 11 11 11 11 12
8 9 9 10 10 10 9 9 9 9 9 9 9 10 10 10 10 9 9 8 8 8 9 9 9 10 11 11 10 11 11 11 11 11 12 13 15 15 16 16 15 16 19 23 20 19 20 21 21 22 21 19 13 8 6 6 6 6 7 7 8 9 10 10 11 11 12 12 12
8 9 9 10 10 10 9 9 9 9 9 9 9 10 10 10 9 9 8 8 8 8 9 9 10 11 11 11 11 11 11 11 11 12 12 13 13 14 15 15 15 17 21 26 22 19 18 20 20 21 20 19 13 8 6 6 6 6 6 7 8 9 9 9 10 11 13 13 12
8 9 9 9 10 10 10 9 9 9 9 9 9 10 10 10 9 9 9 8 8 8 8 8 9 9 10 10 10 11 11 12 12 13 13 13 13 14 14 14 13 16 22 27 24 20 18 18 19 19 19 17 11 8 6 6 6 6 6 7 7 8 9 10 10 11 12 13 12
8 9 9 9 10 10 10 9 9 9 9 9 10 10 10 9 9 9 9 9 8 7 6 7 7 7 7 7 8 9 10 11 12 12 12 13 13 14 14 12 11 16 23 27 26 22 19 16 17 18 17 15 10 7 6 7 7 7 8 8 8 9 9 9 10 10 11 13 12
8 8 9 9 10 10 9 9 9 9 9 9 10 10 10 9 9 9 9 10 9 7 7 7 7 7 7 7 7 8 9 11 11 12 12 12 13 14 14 14 13 17 24 27 27 24 20 16 16 16 15 12 7 6 6 7 8 8 9 9 10 10 10 10 9 10 11 12 12
8 8 9 9 9 9 9 9 9 9 9 9 10 10 10 9 8 8 8 10 9 8 8 8 8 8 8 8 7 7 8 9 10 11 12 12 12 13 14 14 15 18 23 27 27 25 22 18 14 14 12 8 6 5 6 7 7 8 9 10 10 10 11 10 9 9 10 10 12
7 8 8 9 9 9 9 9 9 9 9 9 9 9 9 9 8 8 8 9 7 8 8 8 8 8 8 8 7 7 7 7 8 9 11 11 12 12 12 14 14 17 21 25 27 27 24 20 14 12 9 6 5 5 6 6 6 7 8 9 9 10 10 9 9 9 9 10 12
7 7 8 8 9 9 9 9 9 9 9 9 8 8 8 7 7 7 8 8 7 7 8 8 7 8 8 8 8 8 8 8 8 8 10 10 10 11 11 12 13 15 19 24 27 28 26 22 16 12 8 4 4 4 5 6 6 7 7 8 8 8 9 8 7 8 8 10 15
7 7 7 8 8 9 9 9 8 8 8 8 8 8 8 7 6 7 8 8 6 6 6 7 7 8 8 9 8 8 9 9 9 9 9 9 10 11 12 11 12 14 17 22 26 27 27 24 20 13 8 4 3 3 4 5 5 6 7 7 7 8 8 7 7 7 7 9 15
7 7 7 7 8 8 8 8 8 7 7 7 7 8 7 7 7 7 8 8 6 6 6 7 8 8 8 9 8 8 9 10 9 9 10 10 11 13 14 11 11 13 16 20 24 26 27 26 23 16 9 4 2 3 4 5 5 6 6 7 7 7 7 7 7 6 7 7 11
7 7 7 7 8 8 8 8 8 7 6 6 7 7 6 7 7 7 7 7 7 7 6 6 8 9 9 9 7 7 8 9 10 10 10 11 11 12 12 10 10 11 13 17 21 24 25 26 24 20 14 5 2 2 3 4 5 6 6 6 6 6 7 7 7 6 6 7 8
Wind_Direction
344 345 346 347 348 347 343 338 338 338 338 335 332 329 327 325 323 321 320 318 317 316 315 314 313 313 313 313 312 311 311 311 310 309 307 307 304 302 300 298 295 293 291 290 290 289 289 287 287 286 286 286 285 283 281 280 280 281 280 280 281 281 281 280 278 277 276 274 274
342 342 342 345 347 345 340 337 337 337 336 334 330 326 324 323 321 319 318 317 316 315 314 313 313 313 312 312 312 311 311 310 310 308 307 306 303 301 300 297 295 292 289 288 287 285 284 283 282 282 282 282 281 280 280 279 279 279 279 279 280 280 280 280 279 278 278 277 280
339 338 338 344 346 344 341 339 337 336 334 331 328 325 323 322 320 318 317 316 316 315 315 314 314 313 313 313 313 313 312 310 309 308 306 305 303 301 300 297 294 291 289 286 284 281 280 279 278 278 278 279 278 278 279 278 277 277 278 279 280 281 282 283 285 286 287 289 293
337 336 338 345 345 344 341 339 336 334 332 329 326 324 323 322 320 318 317 317 317 316 316 315 314 314 315 315 315 313 312 310 310 309 307 305 303 301 299 297 295 292 289 285 282 279 277 275 274 273 273 274 274 275 275 275 276 277 278 280 281 282 284 285 288 291 293 294 294
336 336 339 345 344 343 341 338 334 331 328 325 323 322 323 322 321 320 320 320 319 318 316 316 316 317 318 317 316 314 312 311 312 311 310 307 304 302 300 297 295 292 289 285 282 278 276 274 271 269 268 268 270 270 272 273 275 276 277 279 280 281 283 285 288 291 292 292 290
334 336 340 344 344 343 341 337 332 327 323 320 319 321 322 323 322 323 322 321 317 316 317 318 319 320 320 319 316 315 314 315 315 314 312 309 306 304 301 298 296 293 290 286 283 279 275 272 269 266 264 264 266 268 270 272 273 275 276 278 279 281 282 284 287 289 289 288 287
333 337 343 346 345 343 340 336 331 325 321 319 321 322 323 322 322 322 321 318 317 318 320 322 323 322 321 320 318 317 318 319 318 316 314 312 309 307 304 301 298 294 291 287 284 280 275 271 267 266 266 269 271 271 271 271 273 275 277 278 279 280 281 282 283 284 284 284 285
333 339 344 345 344 341 338 334 330 328 327 327 327 326 325 322 322 322 321 319 319 321 323 324 323 322 321 320 320 320 320 321 320 319 318 315 313 310 308 305 300 296 291 286 283 279 275 271 266 264 264 267 269 270 270 271 273 275 277 277 279 280 281 279 279 280 281 283 285
343 345 345 344 342 339 336 332 330 330 331 331 330 328 326 325 324 324 322 321 321 323 324 322 322 322 322 322 322 322 323 323 322 322 320 319 318 317 315 311 306 301 294 287 282 277 274 270 264 260 258 259 263 267 270 273 274 275 275 277 278 279 279 278 278 279 281 284 285
349 348 345 342 339 336 333 331 333 334 334 332 330 327 326 326 326 324 322 321 322 323 323 322 323 324 324 325 325 326 326 325 325 324 324 324 324 324 323 321 318 313 306 295 285 276 270 264 260 257 256 257 261 266 269 270 271 272 274 276 279 280 281 281 280 281 282 283 284
348 347 345 341 337 334 332 333 335 336 335 333 330 327 326 326 324 322 321 323 324 323 323 323 325 326 327 327 328 328 328 328 327 327 327 328 329 330 331 332 334 335 334 326 309 286 268 259 259 260 261 264 266 267 269 270 271 272 274 276 279 282 284 284 284 283 283 283 284
347 347 344 339 334 333 334 336 336 336 334 332 330 328 326 324 323 323 324 326 326 324 324 325 328 329 330 330 330 330 330 329 330 330 330 332 334 336 338 341 350 357 1 2 357 343 303 272 271 272 274 275 275 274 274 274 275 276 278 280 282 284 286 287 288 287 286 287 287
347 346 344 338 334 334 336 337 336 334 333 332 330 329 327 324 324 326 328 328 327 326 326 328 330 332 332 331 331 331 331 331 332 333 334 336 339 342 345 349 1 9 14 18 20 20 16 348 305 286 282 280 280 280 280 279 281 282 284 286 287 288 290 291 291 291 290 289 288
348 347 344 337 336 336 337 338 336 334 333 331 330 329 327 325 327 329 331 330 329 328 328 330 333 334 334 333 333 333 333 333 334 335 337 339 343 346 350 354 6 14 19 23 26 28 27 20 359 326 303 295 294 292 290 288 288 288 289 290 291 292 292 293 293 293 291 289 288
349 348 344 338 337 336 337 337 335 333 332 331 330 329 328 327 329 331 332 331 330 329 331 333 334 335 335 335 335 335 335 336 337 339 341 342 345 349 354 357 10 19 22 25 27 29 29 27 20 9 353 336 322 312 304 300 297 295 294 293 293 294 294 295 296 296 294 293 291
349 347 343 338 336 335 335 335 333 332 331 330 329 329 329 328 330 332 333 333 332 332 333 334 335 335 336 337 337 338 338 339 340 342 343 344 345 349 353 358 12 22 25 26 28 29 29 29 27 24 19 11 357 342 330 322 316 311 308 305 303 302 303 309 313 316 318 322 324
348 345 341 336 333 332 332 332 331 330 329 329 329 329 329 329 330 332 334 335 334 333 334 335 336 337 337 339 339 340 341 341 342 343 344 345 345 348 351 357 9 21 27 27 28 29 29 29 28 28 27 24 19 13 6 359 354 348 344 342 342 340 340 345 349 352 354 357 358
345 343 338 333 331 330 329 329 328 328 328 328 329 329 330 330 330 331 333 334 334 334 334 335 336 338 339 340 340 341 342 342 342 343 344 344 345 347 350 355 3 16 26 29 29 28 28 27 27 27 27 27 25 24 22 19 17 15 14 14 13 11 8 6 5 4 3 3 2
342 339 335 331 329 328 327 327 328 328 328 329 329 329 329 329 330 331 333 334 335 335 335 335 337 338 340 340 341 342 342 342 341 342 342 344 345 347 349 351 355 7 22 30 29 28 27 26 25 24 24 24 23 23 22 22 20 18 17 16 15 12 10 8 6 5 3 1 360
338 335 331 327 325 324 324 325 327 328 328 329 330 330 330 330 331 333 334 334 334 335 336 336 337 339 340 341 342 342 342 341 341 342 342 343 345 347 348 348 349 357 15 31 31 29 27 24 22 21 21 21 21 19 18 17 16 15 13 12 10 8 7 6 5 3 1 360 358
334 331 326 322 321 321 322 324 326 328 328 329 331 332 332 332 333 333 333 333 334 335 336 337 338 339 340 341 342 342 341 341 341 342 342 343 345 346 347 346 346 350 4 30 35 34 30 25 21 19 18 19 19 18 17 15 14 12 11 10 7 6 5 4 3 2 360 358 356
329 325 320 317 317 320 323 326 327 328 330 331 333 333 334 333 333 333 333 333 335 336 337 337 338 339 340 341 342 341 341 340 341 342 343 344 344 345 346 346 344 345 353 22 38 40 35 28 23 19 17 17 18 18 17 16 13 11 9 7 5 4 3 2 1 359 357 355 353
323 319 316 315 317 321 324 327 328 330 331 333 334 335 335 334 333 333 333 335 336 337 337 337 338 338 339 341 342 342 341 341 341 342 343 343 343 344 346 346 344 343 347 12 37 43 40 33 25 19 16 15 16 16 16 15 13 11 8 6 4 3 1 360 358 357 355 353 350
319 317 316 318 321 323 326 328 329 331 333 334 335 335 335 334 334 334 335 336 337 337 337 337 337 337 338 341 343 343 343 343 342 342 342 343 343 344 346 347 343 339 343 10 32 39 41 41 33 23 17 14 13 14 14 13 12 10 8 6 4 1 359 357 356 355 353 350 347
319 317 318 321 324 326 328 329 330 331 332 333 334 335 335 334 335 335 336 336 336 336 336 337 337 338 340 342 343 344 344 344 343 343 342 342 342 344 346 349 343 335 341 19 33 38 40 43 42 35 23 15 12 11 11 11 10 10 8 6 4 1 357 355 354 353 351 348 344
320 321 323 325 326 328 329 329 329 330 331 333 334 335 335 334 334 335 336 336 336 335 336 338 339 341 342 343 343 343 344 344 343 343 343 343 343 344 347 351 344 334 346 27 36 38 39 41 42 41 36 22 15 11 9 7 7 7 7 6 4 1 358 354 353 352 350 348 341
320 324 327 328 328 328 328 328 328 330 332 334 335 334 333 332 334 336 337 337 336 335 336 339 340 341 342 342 342 342 342 342 341 342 342 343 343 344 347 352 346 339 354 31 39 40 39 39 40 40 39 33 21 13 9 5 4 4 5 5 3 1 359 355 353 352 350 348 342
322 327 329 328 328 327 326 327 330 332 333 334 333 332 331 331 334 336 338 337 336 337 339 340 340 340 341 341 341 340 340 340 340 341 341 342 343 344 347 350 346 344 356 28 40 42 40 39 39 39 38 37 28 17 10 7 4 3 4 4 2 360 358 357 355 354 352 350 346
324 328 329 328 326 325 326 328 330 331 332 332 332 331 332 333 335 337 338 338 338 339 340 340 339 339 340 340 338 338 338 339 339 340 340 341 342 342 344 346 344 345 356 24 40 44 42 40 39 38 38 37 32 22 12 8 6 3 3 3 1 359 357 356 356 355 353 351 348
326 328 328 326 324 324 324 326 328 330 331 332 332 332 333 334 336 337 338 337 337 337 338 337 337 337 337 336 337 338 338 338 339 340 340 340 340 339 339 340 340 342 353 16 35 42 42 41 40 39 38 37 34 27 15 8 6 3 2 360 358 356 355 354 354 354 353 351 349
326 327 326 324 323 322 322 323 326 329 331 333 333 334 334 335 335 335 335 333 333 335 337 338 337 335 334 335 336 337 336 336 338 340 340 339 338 336 335 336 336 338 346 3 22 36 42 42 40 39 38 37 35 28 17 10 7 4 360 356 354 354 353 352 352 351 351 350 349
326 326 326 324 322 320 320 321 325 329 332 333 334 334 334 333 332 331 330 329 332 336 339 339 337 336 335 335 336 336 336 336 339 339 339 338 335 333 333 334 335 335 340 352 9 26 39 41 40 40 39 38 36 29 18 12 8 4 359 354 351 351 350 350 349 349 349 348 347
325 326 325 324 321 320 320 322 325 329 332 333 334 334 333 331 330 330 330 331 335 338 339 337 335 333 333 333 334 334 335 336 337 337 336 335 333 332 332 334 333 334 337 343 358 15 31 40 40 40 40 39 38 31 20 16 12 7 2 356 352 350 349 347 346 346 346 345 344
324 325 325 323 321 320 320 322 325 329 332 333 333 333 332 331 331 330 330 331 335 337 336 333 330 328 327 328 330 331 333 336 337 336 335 334 334 333 333 332 330 332 335 338 349 3 20 37 39 40 40 40 39 32 23 19 15 10 4 358 353 351 348 346 344 344 343 342 340
323 324 324 322 321 321 321 323 326 329 332 333 333 332 332 331 329 326 326 328 332 334 333 330 327 326 327 328 329 330 333 335 334 334 334 335 335 334 332 330 326 330 334 336 342 353 9 29 38 41 41 41 39 34 27 22 16 10 5 359 355 351 348 345 343 342 341 339 337
322 323 322 321 321 321 323 325 327 329 331 332 332 332 331 328 326 323 323 327 331 333 332 329 329 330 331 331 329 330 332 332 331 331 333 336 336 334 331 328 326 328 332 334 337 344 357 17 35 43 42 42 38 34 31 26 18 11 6 2 357 352 348 344 341 339 337 335 336
320 320 320 320 321 322 323 325 328 329 330 330 330 330 328 325 322 322 323 329 331 331 330 328 329 329 329 326 323 322 323 325 327 330 332 335 335 332 329 327 326 327 329 331 333 338 347 7 30 44 46 41 36 34 33 29 20 13 8 4 357 351 347 343 339 336 334 332 339
317 317 319 319 320 321 323 326 327 327 327 327 327 327 326 324 321 322 325 330 329 328 326 325 325 324 322 320 319 319 320 323 327 330 331 332 331 329 328 327 325 325 326 329 330 333 340 356 18 39 56 49 41 37 36 33 23 16 10 4 356 350 346 342 339 335 332 331 343
314 316 317 318 319 320 322 324 324 323 323 324 325 325 325 324 322 322 325 327 324 322 320 319 319 318 318 320 321 323 324 325 329 331 332 330 327 329 331 330 326 323 323 326 329 330 334 342 4 29 60 63 53 46 42 40 28 19 12 6 358 351 346 342 337 332 328 327 344
313 316 317 318 318 320 320 321 320 319 320 323 324 324 324 323 321 322 323 323 321 319 318 317 316 316 318 323 325 326 327 328 330 331 331 329 327 331 333 332 325 321 321 324 327 328 330 333 351 11 42 85 68 54 50 46 33 22 14 7 1 354 348 342 337 331 328 328 343
314 317 319 319 318 318 318 317 316 316 318 321 321 322 322 323 322 322 323 322 322 322 321 320 319 318 320 325 327 328 329 329 330 330 330 330 328 330 331 329 323 320 319 322 325 326 327 329 339 354 15 77 79 65 56 51 38 24 14 7 3 356 349 342 338 334 333 337 343